Location: Batang Balui
(2.7000°N, 113.7833°E)
Time: 05:39:17
(UTC+00:00)

Milstar 3 - Pass Details

Date: 08 February 2023
Orbit: 1093 x 5152 km, 28.2° (Epoch: 28 February)

Event Time Altitude Azimuth Distance (km) Brightness Sun altitude
Exits shadow 19:57:27 58° 35° (NE) 1,853 3.8 -39.6°
Drops below altitude 10° 20:10:30 10° 109° (ESE) 5,386 7.1 -36.5°
Sets 20:16:03 0° 113° (ESE) 7,050 7.9 -35.2°
